DW3039 Karjalohja FI current weather conditions

sailwx.info

Wind from 173

Air temperature 11.1° C
Dewpoint 10.0° C

Last reported at 2016-Sep-27 21:42 UTC.
Time now 2016-Sep-27 22:20 UTC

Location: N 60°16' E 023°41'.
View on Google Maps.

See reports from other nearby stations

  
Tides and Currents Weather Stations Pressure Air Temp Water Temp Dewpoint Dewpoint Depression Visibility Wind Speed Wind Dir Waves Ship Positions
date/time (UTC)wind fromknots sea level pressurealtimeterstation pressurevisibilityair tempwater tempwave heightnotes
2016-Sep-27 21:42 173 11.1
2016-Sep-27 21:31 173 11.1
2016-Sep-27 21:21 173 11.1
2016-Sep-27 21:11 173 11.1
2016-Sep-27 21:01 173 11.1
2016-Sep-27 20:51 173 11.1
2016-Sep-27 20:41 173 11.1
2016-Sep-27 20:31 173 11.1
2016-Sep-27 20:21 173 11.1
2016-Sep-27 20:11 173 11.1
2016-Sep-27 20:01 173 11.1
2016-Sep-27 19:51 173 11.1
2016-Sep-27 19:41 173 11.1
2016-Sep-27 19:31 173 11.1
2016-Sep-27 19:21 173 11.7
2016-Sep-27 19:11 173 11.7
2016-Sep-27 19:01 173 11.7
2016-Sep-27 18:51 173 11.7
2016-Sep-27 18:41 173 11.7
2016-Sep-27 18:31 173 11.7
2016-Sep-27 18:21 173 11.7
2016-Sep-27 18:11 173 11.7
2016-Sep-27 18:01 173 12.2
2016-Sep-27 17:51 173 12.2
2016-Sep-27 17:41 173 12.2
2016-Sep-27 17:31 173 12.2
2016-Sep-27 17:21 173 12.8
2016-Sep-27 17:11 173 12.8
2016-Sep-27 17:01 204 0 gusting 4 12.8
2016-Sep-27 16:51 203 13.3
2016-Sep-27 16:41 207 0 gusting 3 13.3
2016-Sep-27 16:31 180 13.3
2016-Sep-27 16:21 151 13.9
2016-Sep-27 16:11 201 0 gusting 6 13.9
2016-Sep-27 16:01 206 1 gusting 3 13.9
2016-Sep-27 15:51 201 14.4
2016-Sep-27 15:41 192 0 gusting 4 14.4
2016-Sep-27 15:31 153 14.4
2016-Sep-27 15:21 177 1 gusting 6 15.0
2016-Sep-27 15:11 204 3 gusting 8 15.0
2016-Sep-27 15:01 200 2 gusting 7 15.0
2016-Sep-27 14:51 215 3 gusting 9 15.0
2016-Sep-27 14:41 220 4 gusting 7 15.6
2016-Sep-27 14:31 199 2 gusting 6 15.6
2016-Sep-27 14:21 199 0 gusting 8 15.6
2016-Sep-27 14:11 216 3 gusting 10 15.6
2016-Sep-27 14:01 210 5 gusting 9 16.1
2016-Sep-27 13:51 212 6 gusting 8 16.1
2016-Sep-27 13:40 195 3 gusting 8 16.1
2016-Sep-27 13:30 199 4 gusting 8 16.1
2016-Sep-27 13:20 160 2 gusting 8 16.1
2016-Sep-27 13:10 190 1 gusting 6 16.1
2016-Sep-27 13:00 214 0 gusting 7 16.1
2016-Sep-27 12:50 200 2 gusting 7 16.1
2016-Sep-27 12:40 209 16.1
2016-Sep-27 12:30 197 3 gusting 6 16.1
2016-Sep-27 12:20 175 2 gusting 6 15.6
2016-Sep-27 12:10 179 15.6
2016-Sep-27 12:00 207 0 gusting 4 15.6
2016-Sep-27 11:50 175 16.1
2016-Sep-27 11:40 120 0 gusting 3 16.1
2016-Sep-27 11:30 118 16.1
2016-Sep-27 11:20 139 0 gusting 6 16.1
2016-Sep-27 11:10 150 1 gusting 4 16.1
2016-Sep-27 11:00 145 1 gusting 6 16.1
2016-Sep-27 10:50 137 3 gusting 5 15.6
2016-Sep-27 10:40 136 1 gusting 4 15.6
2016-Sep-27 10:30 175 15.0
2016-Sep-27 10:20 215 2 gusting 5 15.0
2016-Sep-27 10:10 211 2 gusting 6 14.4
2016-Sep-27 10:00 248 0 gusting 2 14.4
2016-Sep-27 09:50 285 14.4
2016-Sep-27 09:40 243 1 gusting 4 14.4
2016-Sep-27 09:30 228 14.4
2016-Sep-27 09:20 189 13.9
2016-Sep-27 09:10 189 13.9
2016-Sep-27 09:00 205 0 gusting 3 13.9
2016-Sep-27 08:50 200 1 gusting 3 13.9
2016-Sep-27 08:40 227 13.9
2016-Sep-27 08:30 248 0 gusting 4 13.9
2016-Sep-27 08:20 224 0 gusting 3 13.3
2016-Sep-27 08:10 220 1 gusting 4 13.3
2016-Sep-27 08:00 255 13.3
2016-Sep-27 07:50 176 13.3
2016-Sep-27 07:40 176 13.3
2016-Sep-27 07:30 200 1 gusting 4 12.8
2016-Sep-27 07:20 275 12.8
2016-Sep-27 07:10 203 0 gusting 5 12.8
2016-Sep-27 07:00 215 12.8
2016-Sep-27 06:50 215 12.8
2016-Sep-27 06:40 215 12.8
2016-Sep-27 06:30 215 12.8
2016-Sep-27 06:20 215 12.2
2016-Sep-27 06:10 224 0 gusting 2 12.2
2016-Sep-27 06:00 225 12.2
2016-Sep-27 05:50 225 12.2
2016-Sep-27 05:40 225 12.2
2016-Sep-27 05:30 206 1 gusting 4 12.2
2016-Sep-27 05:20 203 12.2
2016-Sep-27 05:10 251 1 gusting 3 12.2
2016-Sep-27 04:59 208 12.2
2016-Sep-27 04:49 227 12.2
2016-Sep-27 04:39 227 12.2
2016-Sep-27 04:29 227 11.7
2016-Sep-27 04:19 218 11.7
2016-Sep-27 04:09 218 11.7
2016-Sep-27 03:59 218 11.7
2016-Sep-27 03:49 218 11.7
2016-Sep-27 03:39 218 11.7
2016-Sep-27 03:29 218 11.7
2016-Sep-27 03:19 218 11.7
2016-Sep-27 03:09 218 11.7
2016-Sep-27 02:59 218 11.7
2016-Sep-27 02:49 218 11.7
2016-Sep-27 02:39 218 11.7
2016-Sep-27 02:29 218 11.7
2016-Sep-27 02:19 218 11.7
2016-Sep-27 02:09 218 11.7
2016-Sep-27 01:59 218 11.7
2016-Sep-27 01:49 218 11.7
2016-Sep-27 01:39 218 11.7
2016-Sep-27 01:29 218 11.7
2016-Sep-27 01:19 218 11.7
2016-Sep-27 01:09 218 11.7
2016-Sep-27 00:59 218 11.7
2016-Sep-27 00:49 218 11.7
2016-Sep-27 00:39 218 11.7
2016-Sep-27 00:29 218 11.7
2016-Sep-27 00:19 218 11.7
2016-Sep-27 00:09 218 11.7
2016-Sep-26 23:59 218 11.7
2016-Sep-26 23:49 218 11.7
2016-Sep-26 23:39 218 11.7
2016-Sep-26 23:29 239 0 gusting 4 11.1
2016-Sep-26 23:19 224 11.1
2016-Sep-26 23:09 224 11.1
2016-Sep-26 22:59 224 11.1
2016-Sep-26 22:49 224 11.1
2016-Sep-26 22:39 224 11.1
2016-Sep-26 22:29 224 11.1
2016-Sep-26 22:19 224 11.1
2016-Sep-26 22:09 224 11.1
2016-Sep-26 21:59 224 11.1
2016-Sep-26 21:49 224 11.1
2016-Sep-26 21:39 224 11.1
2016-Sep-26 21:29 224 11.1
2016-Sep-26 21:19 224 11.1
2016-Sep-26 21:09 224 11.1
2016-Sep-26 20:59 224 11.1
2016-Sep-26 20:49 224 11.1
2016-Sep-26 20:38 224 11.1
2016-Sep-26 20:28 224 11.1
2016-Sep-26 20:18 224 11.7
2016-Sep-26 20:08 224 11.7
2016-Sep-26 19:58 224 11.7
2016-Sep-26 19:48 224 11.7
2016-Sep-26 19:38 224 11.7
2016-Sep-26 19:28 224 11.7
2016-Sep-26 19:18 224 11.7
2016-Sep-26 19:08 224 11.7
2016-Sep-26 18:58 224 12.2
2016-Sep-26 18:48 224 12.2
2016-Sep-26 18:38 224 12.2
2016-Sep-26 18:28 224 12.2
2016-Sep-26 18:18 224 12.8
2016-Sep-26 18:08 224 12.8
2016-Sep-26 17:58 224 12.8
2016-Sep-26 17:48 224 13.3
2016-Sep-26 17:38 224 13.3
2016-Sep-26 17:28 224 13.3
2016-Sep-26 17:18 224 13.9
2016-Sep-26 17:08 224 13.9
2016-Sep-26 16:58 224 13.9
2016-Sep-26 16:48 204 1 gusting 3 13.9
2016-Sep-26 16:38 201 14.4
2016-Sep-26 16:28 211 0 gusting 3 14.4
2016-Sep-26 16:18 216 0 gusting 3 14.4
2016-Sep-26 16:08 212 0 gusting 4 15.0
2016-Sep-26 15:58 234 15.0
2016-Sep-26 15:48 219 1 gusting 6 15.0
2016-Sep-26 15:38 205 2 gusting 7 15.6
2016-Sep-26 15:28 214 3 gusting 6 15.6
2016-Sep-26 15:18 220 4 gusting 6 15.6
2016-Sep-26 15:08 212 0 gusting 8 16.1
2016-Sep-26 14:58 220 3 gusting 8 16.1
2016-Sep-26 14:48 211 6 gusting 13 16.7
2016-Sep-26 14:38 220 6 gusting 13 16.7
2016-Sep-26 14:28 192 0 gusting 6 16.1
2016-Sep-26 14:18 143 0 gusting 5 16.1
2016-Sep-26 14:08 192 3 gusting 6 16.1
2016-Sep-26 13:58 269 16.1
2016-Sep-26 13:48 269 16.1
2016-Sep-26 13:38 247 0 gusting 1 16.1
2016-Sep-26 13:28 167 16.1
2016-Sep-26 13:18 208 1 gusting 5 16.1
2016-Sep-26 13:08 221 3 gusting 5 16.1
2016-Sep-26 12:58 170 16.1
2016-Sep-26 12:48 211 2 gusting 4 15.6
2016-Sep-26 12:38 219 2 gusting 5 15.6
2016-Sep-26 12:28 248 2 gusting 7 15.6
2016-Sep-26 12:18 220 2 gusting 6 15.6
2016-Sep-26 12:07 205 2 gusting 6 15.6
2016-Sep-26 11:57 220 5 gusting 8 15.6
2016-Sep-26 11:47 210 2 gusting 7 15.6
2016-Sep-26 11:37 217 1 gusting 5 15.6
2016-Sep-26 11:27 215 3 gusting 6 15.6
2016-Sep-26 11:17 225 4 gusting 7 15.6
2016-Sep-26 11:07 220 2 gusting 6 15.6
2016-Sep-26 10:57 204 3 gusting 6 15.6
2016-Sep-26 10:47 179 2 gusting 6 15.6
2016-Sep-26 10:37 182 0 gusting 7 15.6
2016-Sep-26 10:27 210 15.6
2016-Sep-26 10:17 179 1 gusting 4 15.6
2016-Sep-26 10:07 208 0 gusting 6 15.0
2016-Sep-26 09:57 221 2 gusting 6 15.0
2016-Sep-26 09:47 209 3 gusting 6 15.6
2016-Sep-26 09:37 212 2 gusting 8 15.0
2016-Sep-26 09:27 201 2 gusting 6 15.0
2016-Sep-26 09:17 197 1 gusting 6 15.0
2016-Sep-26 09:07 183 2 gusting 6 14.4
2016-Sep-26 08:57 170 0 gusting 6 14.4
2016-Sep-26 08:47 206 4 gusting 6 14.4
2016-Sep-26 08:37 226 0 gusting 6 14.4
2016-Sep-26 08:27 186 1 gusting 6 14.4
2016-Sep-26 08:17 179 1 gusting 5 14.4
2016-Sep-26 08:07 158 13.9
2016-Sep-26 07:57 182 13.9
2016-Sep-26 07:47 213 1 gusting 6 13.3
2016-Sep-26 07:37 162 13.3
2016-Sep-26 07:27 206 13.3
2016-Sep-26 07:17 206 13.3
2016-Sep-26 07:07 206 13.3
2016-Sep-26 06:57 206 12.8
2016-Sep-26 06:47 206 12.8
2016-Sep-26 06:37 206 12.8
2016-Sep-26 06:27 206 12.8
2016-Sep-26 06:17 206 12.8
2016-Sep-26 06:07 206 12.8
2016-Sep-26 05:57 206 12.2
2016-Sep-26 05:47 206 12.2
2016-Sep-26 05:37 206 12.2
2016-Sep-26 05:27 206 12.2
2016-Sep-26 05:17 206 12.2
2016-Sep-26 05:07 206 12.2
2016-Sep-26 04:57 206 12.2
2016-Sep-26 04:47 206 12.2
2016-Sep-26 04:37 128 12.2
2016-Sep-26 04:27 128 11.7
2016-Sep-26 04:17 128 11.7
2016-Sep-26 04:06 128 11.7
2016-Sep-26 03:56 128 11.7
2016-Sep-26 03:46 128 11.7
2016-Sep-26 03:36 105 11.7
2016-Sep-26 03:26 105 11.7
2016-Sep-26 03:16 105 11.7
2016-Sep-26 03:06 105 11.1
2016-Sep-26 02:56 105 11.1
2016-Sep-26 02:46 105 11.1
2016-Sep-26 02:36 105 11.1
2016-Sep-26 02:26 121 11.1
2016-Sep-26 02:16 121 10.6
2016-Sep-26 02:06 121 10.6
2016-Sep-26 01:56 187 10.6
2016-Sep-26 01:46 187 10.6
2016-Sep-26 01:36 187 10.6
2016-Sep-26 01:26 187 10.6
2016-Sep-26 01:16 187 10.6
2016-Sep-26 01:06 187 10.6
2016-Sep-26 00:56 187 10.6
2016-Sep-26 00:46 187 10.6
2016-Sep-26 00:36 187 10.6
2016-Sep-26 00:26 187 10.6
2016-Sep-26 00:16 187 11.1
2016-Sep-26 00:06 187 11.1
2016-Sep-25 23:56 187 11.1
2016-Sep-25 23:46 187 11.1
2016-Sep-25 23:36 187 11.7
2016-Sep-25 23:26 187 11.7
2016-Sep-25 23:16 187 11.7
2016-Sep-25 23:06 187 11.7
2016-Sep-25 22:56 162 11.7
2016-Sep-25 22:46 162 11.7
2016-Sep-25 22:36 162 11.7
2016-Sep-25 22:26 162 11.7
2016-Sep-25 22:16 162 11.7
2016-Sep-25 22:06 146 11.7